Orbital Elements at Epoch 2459200.5 (2020-Dec-17.0) TDB
Reference: JPL 34 (heliocentric ecliptic J2000)
Element | Value | Uncertainty (1-sigma) | Units |
e | .205739053838942 | 3.0019e-08 | |
a | 2.799572759777599 | 1.2269e-08 | au |
q | 2.22359130902768 | 8.3015e-08 | au |
i | 7.413438579680887 | 4.0382e-06 | deg |
node | 192.4673094478377 | 2.7282e-05 | deg |
peri | 244.1329763596686 | 2.928e-05 | deg |
M | 271.2055100887833 | 1.2464e-05 | deg |
tp | 2459622.506928746414 (2022-Feb-12.00692875) | 6.0578e-05 | TDB |
period | 1710.945065404537 4.68 | 1.1247e-05 3.079e-08 | d yr |
n | .2104100285153699 | 1.3832e-09 | deg/d |
Q | 3.375554210527519 | 1.4793e-08 | au |
|
| | Orbit Determination Parameters
Additional Information
|